Location: Austin
(30.3000°N, 97.7500°W)
Time: 12:19:43
(UTC-05:00)

TSX-5 - Pass Details

Date: 26 May 2023
Orbit: 398 x 1250 km, 68.9° (Epoch: 31 May)

Event Time Altitude Azimuth Distance (km) Brightness Sun altitude
Rises 21:32:39 0° 203° (SSW) 2,732 7.3 -13.5°
Reaches altitude 10° 21:34:37 10° 204° (SSW) 1,943 6.5 -13.8°
Maximum altitude 21:39:00 83° 291° (WNW) 722 4.4 -14.6°
Drops below altitude 10° 21:44:42 10° 21° (NNE) 2,506 7.4 -15.6°
Sets 21:47:31 0° 22° (NNE) 3,596 8.2 -16.1°
